This is the latest recevied weather packets stored in our database for station/object K7MT-WX. If no packets are shown the sender has not sent any weather packets the latest 10 day(s).
| Time | Temp. | Humidity | Pressure | Rain* | Wind** | Luminosity | Snow |
|---|---|---|---|---|---|---|---|
| 1778067431 | -3.89° C | 87% | 1018.7 hPa | 0 mm | - | - | - |
| 1778066531 | -4.44° C | 87% | 1018.7 hPa | 0 mm | - | - | - |
| 1778065631 | -3.89° C | 85% | 1018.8 hPa | 0 mm | - | - | - |
| 1778064731 | -3.89° C | 83% | 1018.8 hPa | 0 mm | - | - | - |
| 1778063831 | -3.89° C | 82% | 1019 hPa | 0 mm | - | - | - |
| 1778062931 | -3.89° C | 83% | 1019 hPa | 0 mm | - | - | - |
| 1778062031 | -3.33° C | 82% | 1018.9 hPa | 0 mm | - | - | - |
| 1778061131 | -3.33° C | 82% | 1019.1 hPa | 0 mm | - | - | - |
| 1778060231 | -3.33° C | 81% | 1019.1 hPa | 0 mm | - | - | - |
| 1778059331 | -2.78° C | 81% | 1019.1 hPa | 0 mm | - | - | - |
| 1778058431 | -2.78° C | 79% | 1019.3 hPa | 0 mm | - | - | - |
| 1778057531 | -2.22° C | 78% | 1019.3 hPa | 0 mm | - | - | - |
| 1778056631 | -2.22° C | 77% | 1019.3 hPa | 0 mm | - | - | - |
| 1778055731 | -1.67° C | 77% | 1019.4 hPa | 0 mm | - | - | - |
| 1778054831 | -1.11° C | 74% | 1019.4 hPa | 0 mm | - | - | - |
| 1778053931 | -1.11° C | 74% | 1019.6 hPa | 0 mm | - | - | - |
| 1778053031 | -1.11° C | 72% | 1019.7 hPa | 0 mm | - | - | - |
| 1778052131 | -0.56° C | 73% | 1019.7 hPa | 0 mm | - | - | - |
| 1778051231 | -0.56° C | 73% | 1019.8 hPa | 0 mm | - | - | - |
| 1778050331 | -0.56° C | 72% | 1019.8 hPa | 0 mm | - | - | - |
| 1778049431 | -0.56° C | 71% | 1019.8 hPa | 0 mm | - | - | - |
| 1778048531 | -0.56° C | 72% | 1019.6 hPa | 0 mm | - | - | - |
| 1778047631 | 0° C | 71% | 1019.7 hPa | 0 mm | - | - | - |
| 1778046731 | 0° C | 70% | 1019.5 hPa | 0 mm | - | - | - |
| 1778045831 | 0.56° C | 68% | 1019.5 hPa | 0 mm | - | - | - |
* Rain latest hour (hover to see other rain measurements)
** Current wind speed in m/s (hover to see current wind gust speed)